Regional Weather Roundup
Issued by NWS

Home | Current Version | Previous Version | Text Only | Print | Product List | Glossary Off
Versions: 1 2 3 4 5 6 7 8 9 10 11 12 13 14 15 16 17 18 19 20 21 22 23 24 25 26 27 28 29 30 31 32 33 34 35 36 37 38 39 40 41 42 43 44 45 46 47 48 49 50

000
ASUS43 KLMK 010710
RWRKY
KENTUCKY REGIONAL WEATHER ROUNDUP
NATIONAL WEATHER SERVICE LOUISVILLE KY
300 AM EDT SUN MAY 01 2016

NOTE "FAIR" INDICATES FEW OR NO CLOUDS BELOW 12,000 FEET
WITH NO SIGNIFICANT WEATHER AND/OR OBSTRUCTIONS TO VISIBILITY.

KYZ001>023-026-027-061>063-070>075-010800-
WESTERN AND SOUTH CENTRAL KENTUCKY

CITY           SKY/WX    TMP DP  RH WIND       PRES   REMARKS
PADUCAH        PTCLDY    62  60  93 CALM      29.86S FOG
HENDERSON      MOCLDY    63  57  82 CALM      29.86F
OWENSBORO      MOCLDY    64  64 100 CALM      29.88F
HOPKINSVILLE   CLOUDY    65  65 100 CALM      29.88S
BOWLING GREEN  CLOUDY    68  65  90 SW5       29.89F
GLASGOW        LGT RAIN  65  65 100 CALM      29.90F
$$

KYZ024-025-028>034-038-045-046-053-010800-
NORTH CENTRAL KENTUCKY

CITY           SKY/WX    TMP DP  RH WIND       PRES   REMARKS
LOUISVILLE/SDF CLOUDY    64  62  93 E5        29.88F
LOUISVILLE/LOU LGT RAIN  64  61  90 SE3       29.89F
FORT KNOX      CLOUDY    63  63 100 E5        29.87S
$$

KYZ035>037-039>044-047>052-055>060-089>105-010800-
NORTHEAST KENTUCKY

CITY           SKY/WX    TMP DP  RH WIND       PRES   REMARKS
LEXINGTON      LGT RAIN  63  61  93 SE8       29.92F
COVINGTON      CLOUDY    62  61  96 SW7       29.90F
FRANKFORT      CLOUDY    63  61  93 SE6       29.89F
$$

KYZ054-064>069-076>088-106>120-010800-
SOUTHEAST KENTUCKY

CITY           SKY/WX    TMP DP  RH WIND       PRES   REMARKS
JACKSON        LGT RAIN  60  58  92 SE3       29.95F
LONDON         RAIN      62  60  93 CALM      29.93F FOG
SOMERSET       TSTM      61  61 100 NE5       29.95S
MIDDLESBORO    RAIN      61  61 100 CALM      29.96F
MONTICELLO     TSTM      64  61  88 W15G29    29.96R
$$




USA.gov is the U.S. government's official web portal to all federal, state and local government web resources and services.